Weather History for KJAN - October, 2014

Change the Weather History Date:

Thursday, October 30, 2014

  Actual Average Record
Temperature  
Mean Temperature 57 °F 61 °F  
Max Temperature 73 °F 73 °F 89 °F (1927)
Min Temperature 41 °F 49 °F 27 °F (1910)
Degree Days  
Heating Degree Days 8 6  
Month to date heating degree days 55 94  
Since 1 July heating degree days 55 101  
Cooling Degree Days 0 2  
Month to date cooling degree days 149 104  
Year to date cooling degree days 2278 2230  
Growing Degree Days 7 (Base 50)    
Moisture  
Dew Point 42 °F    
Average Humidity 65    
Maximum Humidity 100    
Minimum Humidity 29    
Precipitation  
Precipitation 0.00 in 0.12 in 1.65 in (1949)
Month to date precipitation 2.98 3.79  
Year to date precipitation 48.38 44.10  
Sea Level Pressure  
Sea Level Pressure 30.10 in    
Wind  
Wind Speed 3 mph (NNE)    
Max Wind Speed 15 mph    
Max Gust Speed 19 mph    
Visibility 9 miles    
Events      
T = Trace of Precipitation, MM = Missing Value Source: NWS Daily Summary

Daily Weather History Graph

Daily Weather History Graph

Search for Another Location

Airport or City:

Trip Planner

Search our weather history database for the weather conditions in past years. The results will help you decide how hot, cold, wet, or windy it might be!

Date:

Astronomy

Oct. 30, 2014 Rise Set
Actual Time 7:15 AM CDT 6:11 PM CDT
Civil Twilight 6:50 AM CDT 6:36 PM CDT
Nautical Twilight 6:21 AM CDT 7:05 PM CDT
Astronomical Twilight 5:52 AM CDT 7:34 PM CDT
Moon 1:17 PM CDT (10/30) No Moon Set
Length of Visible Light 11h 46m
Length of Day
10h 56m
Waxing Crescent, 45% of the Moon is Illuminated
Oct 30
Waxing Crescent
Oct 30
First Quarter
Nov 6
Full
Nov 14
Last Quarter
Nov 22
New

Hourly Weather History & Observations

Time (CDT) Temp. Dew Point Humidity Pressure Visibility Wind Dir Wind Speed Gust Speed Precip Events Conditions
12:54 AM 46.9 °F 45.0 °F 93% 30.13 in 10.0 mi Calm Calm - N/A   Clear
1:54 AM 46.0 °F 43.0 °F 89% 30.12 in 10.0 mi Calm Calm - N/A   Clear
2:45 AM 45.0 °F 44.1 °F 97% 30.12 in 1.5 mi Calm Calm - N/A   Clear
2:54 AM 45.0 °F 44.1 °F 97% 30.12 in 2.0 mi Calm Calm - N/A   Clear
3:02 AM 45.0 °F 43.0 °F 93% 30.12 in 10.0 mi Calm Calm - N/A   Clear
3:54 AM 44.1 °F 42.1 °F 93% 30.12 in 10.0 mi Calm Calm - N/A   Clear
4:54 AM 43.0 °F 41.0 °F 93% 30.12 in 10.0 mi Calm Calm - N/A   Clear
5:54 AM 43.0 °F 41.0 °F 93% 30.13 in 10.0 mi Calm Calm - N/A   Clear
6:54 AM 42.1 °F 39.9 °F 92% 30.14 in 8.0 mi Calm Calm - N/A   Clear
7:54 AM 43.0 °F 42.1 °F 97% 30.16 in 10.0 mi Calm Calm - N/A   Clear
8:54 AM 54.0 °F 46.9 °F 77% 30.17 in 10.0 mi Calm Calm - N/A   Clear
9:54 AM 63.0 °F 44.1 °F 50% 30.17 in 10.0 mi ENE 4.6 mph - N/A   Clear
10:54 AM 66.9 °F 37.9 °F 34% 30.15 in 10.0 mi East 9.2 mph - N/A   Clear
11:54 AM 69.1 °F 39.9 °F 35% 30.14 in 10.0 mi Variable 4.6 mph - N/A   Clear
12:54 PM 71.1 °F 37.9 °F 30% 30.11 in 10.0 mi North 8.1 mph - N/A   Clear
1:54 PM 72.0 °F 39.9 °F 31% 30.08 in 10.0 mi North 8.1 mph - N/A   Partly Cloudy
2:54 PM 73.0 °F 39.9 °F 30% 30.06 in 10.0 mi NE 5.8 mph - N/A   Partly Cloudy
3:54 PM 72.0 °F 39.0 °F 30% 30.05 in 10.0 mi NNE 8.1 mph - N/A   Partly Cloudy
4:54 PM 72.0 °F 39.9 °F 31% 30.04 in 10.0 mi North 8.1 mph - N/A   Partly Cloudy
5:54 PM 66.9 °F 42.1 °F 40% 30.04 in 10.0 mi NE 3.5 mph - N/A   Partly Cloudy
6:54 PM 57.9 °F 45.0 °F 62% 30.06 in 10.0 mi Calm Calm - N/A   Partly Cloudy
7:54 PM 55.0 °F 45.0 °F 69% 30.06 in 10.0 mi Calm Calm - N/A   Clear
8:54 PM 51.1 °F 45.0 °F 80% 30.06 in 10.0 mi Calm Calm - N/A   Clear
9:54 PM 48.9 °F 43.0 °F 80% 30.06 in 10.0 mi Calm Calm - N/A   Clear
10:54 PM 50.0 °F 45.0 °F 83% 30.06 in 10.0 mi Calm Calm - N/A   Mostly Cloudy
11:54 PM 48.9 °F 45.0 °F 86% 30.06 in 10.0 mi Calm Calm - N/A   Mostly Cloudy